Location: Mentone
(34.5413°N, 85.5351°W)
Time: 16:15:29
(UTC-05:00)

Amateur Radio Satellites - All Passes

Search period start: 29 April 2017 15:45
Search period end: 30 April 2017 15:45
Location: Mentone, 34.5413°N, 85.5351°W

Satellite Date Start Highest point End Downlink Frequencies (MHz)
Time Altitude Azimuth
ITUPSAT 1 29 Apr 15:52:15 15:57:03 76° 285° (WNW) 16:01:49 437.325
MOZHAYETS 4 29 Apr 16:12:02 16:16:40 90° 47° (NE) 16:21:18
ITAMSAT 1 29 Apr 16:20:23 16:24:26 23° 264° (W) 16:28:30 435.822/435.867
DOVE 4 29 Apr 16:25:43 16:27:10 11° 64° (ENE) 16:28:35 437.250
JUGNU 29 Apr 16:32:07 16:35:51 17° 174° (S) 16:39:37 437.505
BEESAT 29 Apr 16:48:16 16:51:37 19° 293° (WNW) 16:54:59 436.000
CUBESAT XI-V 29 Apr 17:11:40 17:16:22 64° 101° (E) 17:21:01 437.345
XW-2D 29 Apr 17:25:36 17:28:29 21° 71° (ENE) 17:31:22 145.860 - 145.880
NO-84 29 Apr 17:28:05 17:31:38 31° 127° (SE) 17:34:56 435.350 FM
XW-2B 29 Apr 17:32:23 17:35:28 25° 72° (ENE) 17:38:35 145.730 - 145.750
KAITUO 1B 29 Apr 17:34:21 17:37:08 21° 71° (ENE) 17:39:56 145.475/437.950
YUBILEINY 29 Apr 17:34:45 17:39:29 16° 281° (W) 17:44:13 435.215
KKS-1 29 Apr 17:37:29 17:41:52 63° 286° (WNW) 17:46:13 437.445
XW-2C 29 Apr 17:44:04 17:47:30 36° 74° (ENE) 17:50:57 145.795 - 145.815
LilacSat-2 29 Apr 17:46:44 17:50:17 42° 75° (ENE) 17:53:51 437.200
CUTE-I 29 Apr 17:50:20 17:55:25 47° 72° (ENE) 18:00:31 437.470
RS-15 29 Apr 17:56:23 18:06:55 38° 255° (WSW) 18:17:02 29.354- 29.394
DOVE 4 29 Apr 17:58:50 18:04:08 81° 258° (WSW) 18:09:21 437.250
STARS 29 Apr 17:59:53 18:04:15 85° 285° (WNW) 18:08:36 437.465
SRMSAT 29 Apr 18:01:45 18:04:38 14° 167° (SSE) 18:07:31 437.500
XW-2F 29 Apr 18:06:44 18:10:27 74° 77° (ENE) 18:14:10 145.980 - 146.000
NUDT-PHONESAT 29 Apr 18:08:09 18:11:45 60° 76° (ENE) 18:15:23 437.300
JUGNU 29 Apr 18:20:14 18:24:10 18° 184° (S) 18:28:07 437.505
CUBESAT XI-V 29 Apr 18:51:41 18:53:07 11° 295° (WNW) 18:54:34 437.345
XW-2A 29 Apr 18:59:10 19:02:11 32° 74° (ENE) 19:05:13 145.665 - 145.685
XW-2D 29 Apr 18:59:51 19:02:33 19° 265° (W) 19:05:17 145.860 - 145.880
HO-68 29 Apr 19:05:06 19:12:07 62° 71° (ENE) 19:19:10 435.675
NO-84 29 Apr 19:06:04 19:09:11 23° 319° (NW) 19:12:05 435.350 FM
XW-2B 29 Apr 19:07:15 19:09:38 16° 266° (W) 19:12:02 145.730 - 145.750
STRAND 1 29 Apr 19:07:48 19:11:25 19° 95° (E) 19:15:01 437.568
KAITUO 1B 29 Apr 19:08:21 19:11:02 19° 265° (W) 19:13:44 145.475/437.950
AAUSAT CUBESAT 2 29 Apr 19:16:10 19:18:45 16° 69° (ENE) 19:21:21 437.432
O/OREOS (USA 219) 29 Apr 19:17:33 19:21:41 33° 65° (ENE) 19:25:46 437.305
XW-2C 29 Apr 19:20:45 19:21:49 11° 267° (W) 19:22:54 145.795 - 145.815
UWE-3 29 Apr 19:24:31 19:27:26 18° 70° (ENE) 19:30:20 435.000/436.395/437.385
CUTE-I 29 Apr 19:32:05 19:35:39 18° 266° (W) 19:39:12 437.470
M-CUBED/EXP-1 PRIME 29 Apr 19:32:37 19:35:11 17° 98° (E) 19:37:38 437.505
CUTE 1.7 + AOD 2 29 Apr 19:38:38 19:42:49 71° 258° (WSW) 19:47:04 437.475
CUBEBUG 2 29 Apr 19:43:26 19:47:40 55° 76° (ENE) 19:51:49 437.445
SRMSAT 29 Apr 19:48:59 19:53:06 19° 177° (S) 19:57:13 437.500
SEEDS 29 Apr 19:52:06 19:56:16 79° 258° (WSW) 20:00:29 437.485
JUGNU 29 Apr 20:10:04 20:12:26 12° 194° (SSW) 20:14:50 437.505
ZACube-1 29 Apr 20:11:10 20:14:59 35° 73° (ENE) 20:18:46 437.345
AO-73 29 Apr 20:15:57 20:19:46 36° 73° (ENE) 20:23:34 145.935
Oscar 11 29 Apr 20:27:00 20:31:02 41° 74° (ENE) 20:35:06 .
AO-85 29 Apr 20:36:20 20:40:04 37° 57° (ENE) 20:43:59 145.980
STRAND 1 29 Apr 20:45:56 20:50:41 41° 288° (WNW) 20:55:26 437.568
AAUSAT CUBESAT 2 29 Apr 20:50:10 20:53:54 33° 263° (W) 20:57:40 437.432
OBJECT BX 29 Apr 20:54:41 20:56:40 14° 69° (ENE) 20:58:39 145.990 - 145.960
HO-68 29 Apr 20:55:07 21:00:12 21° 266° (W) 21:05:19 435.675
O/OREOS (USA 219) 29 Apr 20:57:38 21:00:48 19° 260° (W) 21:03:56 437.305
UWE-3 29 Apr 20:59:57 21:03:41 29° 263° (W) 21:07:21 435.000/436.395/437.385
DELFI C3 29 Apr 21:03:16 21:06:41 28° 72° (ENE) 21:10:06 145.870
M-CUBED/EXP-1 PRIME 29 Apr 21:06:16 21:09:40 27° 295° (WNW) 21:12:51 437.505
SRMSAT 29 Apr 21:37:47 21:41:35 17° 188° (S) 21:45:23 437.500
ZACube-1 29 Apr 21:49:03 21:51:21 14° 266° (W) 21:53:39 437.345
AO-73 29 Apr 21:53:54 21:56:06 14° 266° (W) 21:58:18 145.935
FO-29 29 Apr 22:02:29 22:06:37 22° 97° (E) 22:10:59 435.910
Oscar 11 29 Apr 22:05:14 22:07:20 13° 267° (W) 22:09:25 .
AO-85 29 Apr 22:17:47 22:20:10 15° 250° (WSW) 22:22:37 145.980
TIGRISAT 29 Apr 22:18:06 22:22:03 35° 98° (E) 22:26:04 435.000
BEESAT 3 29 Apr 22:19:34 22:23:35 82° 242° (WSW) 22:27:32 437.485
ESTCUBE 1 29 Apr 22:24:02 22:26:46 16° 67° (ENE) 22:29:31 437.505/2401.250
BEESAT 2 29 Apr 22:26:32 22:30:22 40° 57° (ENE) 22:34:10 435.950
OBJECT BX 29 Apr 22:26:57 22:30:04 27° 263° (W) 22:33:14 145.990 - 145.960
PRISM 29 Apr 22:38:42 22:42:49 69° 285° (WNW) 22:46:53 437.425
DELFI C3 29 Apr 22:38:48 22:41:26 17° 266° (W) 22:44:06 145.870
UNISAT 6 29 Apr 22:40:08 22:44:27 73° 101° (ESE) 22:48:50 437.425
LO-87 29 Apr 23:18:25 23:21:59 53° 260° (W) 23:25:32 145.935 - 145.965
AIST 2D 29 Apr 23:22:56 23:25:48 23° 96° (E) 23:28:39 435.315
POLYITAN 1 29 Apr 23:46:07 23:49:31 24° 96° (E) 23:52:55 437.675
FO-29 29 Apr 23:46:52 23:51:45 38° 288° (WNW) 23:57:01 435.910
QB50P2 29 Apr 23:52:39 23:56:24 31° 97° (E) 00:00:09 145.880/145.840
TIGRISAT 29 Apr 23:55:43 23:58:27 17° 292° (WNW) 00:01:13 435.000
VELOX 1 29 Apr 23:56:17 00:00:32 46° 73° (ENE) 00:04:48 145.980
ESTCUBE 1 29 Apr 23:58:58 00:03:11 40° 261° (W) 00:07:27 437.505/2401.250
UKube-1 29 Apr 23:59:01 00:00:30 12° 65° (ENE) 00:01:58 .
BEESAT 2 30 Apr 00:05:40 00:07:44 14° 252° (WSW) 00:09:49 435.950
NANOSAT C BR1 30 Apr 00:10:43 00:14:43 43° 99° (E) 00:18:41 145.865
PCSat 30 Apr 00:13:21 00:16:37 16° 104° (ESE) 00:19:54 145.827
SPROUT 30 Apr 00:31:28 00:35:43 71° 258° (WSW) 00:39:59 437.525
DX 1 30 Apr 00:36:18 00:40:30 47° 74° (ENE) 00:44:43 434.975-435.025
DUCHIFAT 1 30 Apr 00:38:21 00:42:33 87° 103° (ESE) 00:46:43 145.980
EO-79 30 Apr 00:40:45 00:44:56 70° 283° (WNW) 00:49:06 145.935-145.965
AIST 2D 30 Apr 00:56:35 00:58:48 16° 290° (WNW) 01:01:00 435.315
50 SAT 30 Apr 01:01:58 01:05:15 40° 261° (W) 01:08:34 437.505
POLYITAN 1 30 Apr 01:21:52 01:25:10 23° 290° (WNW) 01:28:28 437.675
Oscar 19 30 Apr 01:22:54 01:27:11 26° 96° (E) 01:31:26 437.125/150
BUGSAT 1 30 Apr 01:25:29 01:29:31 87° 283° (WNW) 01:33:31 437.445
QB50P2 30 Apr 01:29:07 01:31:55 18° 291° (WNW) 01:34:44 145.880/145.840
UKube-1 30 Apr 01:31:47 01:36:00 53° 259° (W) 01:40:15 .
VELOX 1 30 Apr 01:35:05 01:37:10 13° 267° (W) 01:39:15 145.980
NO-84 30 Apr 01:42:31 01:45:10 32° 43° (NE) 01:47:46 435.350 FM
NANOSAT C BR1 30 Apr 01:48:03 01:50:00 13° 293° (WNW) 01:51:57 145.865
Gurwin Techsat 1B 30 Apr 01:53:31 01:58:09 30° 97° (E) 02:02:44 435.225
PCSat 30 Apr 01:54:12 01:59:29 55° 299° (WNW) 02:04:49 145.827
BEESAT 30 Apr 02:12:51 02:16:55 29° 70° (ENE) 02:21:00 436.000
DX 1 30 Apr 02:15:07 02:16:53 12° 267° (W) 02:18:39 434.975-435.025
YUBILEINY 30 Apr 02:38:40 02:44:07 19° 80° (E) 02:49:35 435.215
ITUPSAT 1 30 Apr 02:55:13 02:59:57 84° 79° (E) 03:04:44 437.325
ITAMSAT 1 30 Apr 02:57:40 03:00:50 16° 94° (E) 03:03:59 435.822/435.867
Oscar 19 30 Apr 03:01:52 03:06:27 32° 290° (WNW) 03:11:00 437.125/150
MOZHAYETS 4 30 Apr 03:10:10 03:14:35 55° 74° (ENE) 03:19:03
NO-84 30 Apr 03:21:59 03:22:20 10° 238° (WSW) 03:22:40 435.350 FM
Gurwin Techsat 1B 30 Apr 03:33:27 03:37:57 29° 291° (WNW) 03:42:27 435.225
BEESAT 30 Apr 03:50:50 03:54:38 24° 264° (W) 03:58:26 436.000
AO-7 30 Apr 03:50:58 03:58:59 50° 102° (ESE) 04:06:59 .
CUBESAT XI-V 30 Apr 04:11:19 04:15:39 41° 73° (ENE) 04:20:02 437.345
YUBILEINY 30 Apr 04:31:12 04:39:51 75° 277° (W) 04:48:36 435.215
KKS-1 30 Apr 04:31:30 04:35:58 76° 76° (ENE) 04:40:27 437.445
ITAMSAT 1 30 Apr 04:35:32 04:40:30 49° 287° (WNW) 04:45:28 435.822/435.867
MOZHAYETS 4 30 Apr 04:50:43 04:52:02 11° 268° (W) 04:53:20
STARS 30 Apr 04:52:37 04:56:55 53° 74° (ENE) 05:01:12 437.465
SO-50 30 Apr 05:07:12 05:11:44 58° 116° (ESE) 05:16:15 436.795
AO-7 30 Apr 05:44:14 05:51:23 33° 298° (WNW) 05:58:32 .
CUBESAT XI-V 30 Apr 05:50:18 05:53:09 16° 267° (W) 05:56:01 437.345
ISS 30 Apr 05:51:50 05:54:27 23° 130° (SE) 05:57:06 437.550
RS-15 30 Apr 06:00:37 06:11:57 52° 109° (ESE) 06:23:38 29.354- 29.394
DOVE 4 30 Apr 06:02:19 06:06:20 33° 97° (E) 06:10:10 437.250
CUTE-I 30 Apr 06:11:25 06:15:43 25° 96° (E) 06:20:00 437.470
M-CUBED/EXP-1 PRIME 30 Apr 06:14:27 06:17:26 17° 62° (ENE) 06:20:25 437.505
STRAND 1 30 Apr 06:20:32 06:24:11 20° 67° (ENE) 06:27:50 437.568
STARS 30 Apr 06:32:16 06:33:29 11° 267° (W) 06:34:43 437.465
XW-2D 30 Apr 06:34:30 06:38:14 51° 100° (E) 06:41:58 145.860 - 145.880
YUBILEINY 30 Apr 06:35:19 06:38:09 12° 297° (WNW) 06:41:00 435.215
Tancredo 1 30 Apr 06:35:47 06:38:50 69° 317° (NW) 06:41:56 437.200
HO-68 30 Apr 06:39:53 06:42:45 13° 91° (E) 06:45:36 435.675
XW-2B 30 Apr 06:41:30 06:45:18 62° 100° (E) 06:49:05 145.730 - 145.750
KAITUO 1B 30 Apr 06:41:43 06:45:23 48° 99° (E) 06:49:04 145.475/437.950
SO-50 30 Apr 06:49:51 06:52:31 15° 312° (NW) 06:55:11 436.795
XW-2C 30 Apr 06:53:35 06:57:25 86° 279° (W) 07:01:15 145.795 - 145.815
LilacSat-2 30 Apr 06:57:05 07:00:56 73° 282° (WNW) 07:04:46 437.200
NUDT-PHONESAT 30 Apr 07:15:37 07:19:16 55° 284° (WNW) 07:22:55 437.300
XW-2F 30 Apr 07:16:16 07:19:53 43° 286° (WNW) 07:23:31 145.980 - 146.000
CUTE 1.7 + AOD 2 30 Apr 07:27:23 07:30:56 25° 96° (E) 07:34:28 437.475
ISS 30 Apr 07:28:00 07:30:51 27° 324° (NW) 07:33:42 437.550
CUBEBUG 2 30 Apr 07:38:49 07:41:07 14° 94° (E) 07:43:27 437.445
SEEDS 30 Apr 07:39:57 07:43:17 22° 95° (E) 07:46:35 437.485
DOVE 4 30 Apr 07:40:49 07:43:42 17° 293° (WNW) 07:46:30 437.250
M-CUBED/EXP-1 PRIME 30 Apr 07:47:00 07:51:26 46° 257° (WSW) 07:55:56 437.505
CUTE-I 30 Apr 07:51:00 07:55:45 34° 290° (WNW) 08:00:29 437.470
XW-2A 30 Apr 07:56:31 07:59:51 60° 101° (E) 08:03:11 145.665 - 145.685
STRAND 1 30 Apr 07:58:15 08:03:02 40° 261° (W) 08:07:50 437.568
RS-15 30 Apr 08:13:10 08:24:34 46° 310° (NW) 08:36:19 29.354- 29.394
HO-68 30 Apr 08:23:57 08:31:12 90° 92° (E) 08:38:24 435.675
AAUSAT CUBESAT 2 30 Apr 08:35:14 08:39:16 46° 99° (E) 08:43:17 437.432
UWE-3 30 Apr 08:51:55 08:56:08 66° 102° (ESE) 09:00:26 435.000/436.395/437.385
CUTE 1.7 + AOD 2 30 Apr 09:03:15 09:06:36 23° 290° (WNW) 09:09:57 437.475
CUBEBUG 2 30 Apr 09:13:56 09:17:49 37° 287° (WNW) 09:21:46 437.445
TIGRISAT 30 Apr 09:14:01 09:17:13 20° 70° (ENE) 09:20:24 435.000
SEEDS 30 Apr 09:15:22 09:18:51 25° 289° (WNW) 09:22:20 437.485
PRISM 30 Apr 09:24:03 09:28:03 49° 74° (ENE) 09:32:05 437.425
O/OREOS (USA 219) 30 Apr 09:25:39 09:30:13 77° 108° (ESE) 09:34:50 437.305
UNISAT 6 30 Apr 09:35:30 09:39:34 39° 73° (ENE) 09:43:35 437.425
ZACube-1 30 Apr 09:38:11 09:42:25 61° 284° (WNW) 09:46:42 437.345
AO-73 30 Apr 09:42:37 09:46:49 61° 284° (WNW) 09:51:06 145.935
Oscar 11 30 Apr 09:53:17 09:57:33 56° 285° (WNW) 10:01:48 .
FO-29 30 Apr 09:54:44 10:00:53 57° 74° (ENE) 10:06:21 435.910
OBJECT BX 30 Apr 09:58:51 10:02:04 28° 97° (E) 10:05:15 145.990 - 145.960
AAUSAT CUBESAT 2 30 Apr 10:12:37 10:14:16 12° 293° (WNW) 10:15:56 437.432
HO-68 30 Apr 10:14:07 10:17:55 15° 302° (WNW) 10:21:44 435.675
DELFI C3 30 Apr 10:17:39 10:21:40 76° 101° (ESE) 10:25:37 145.870
RS-15 30 Apr 10:34:40 10:41:34 16° 341° (NNW) 10:48:31 29.354- 29.394
POLYITAN 1 30 Apr 10:37:00 10:38:36 12° 66° (ENE) 10:40:13 437.675
QB50P2 30 Apr 10:42:50 10:45:22 16° 68° (ENE) 10:47:54 145.880/145.840
PCSat 30 Apr 10:45:27 10:50:48 55° 61° (ENE) 10:56:05 145.827
AO-85 30 Apr 10:47:37 10:51:25 29° 113° (ESE) 10:55:01 145.980
TIGRISAT 30 Apr 10:49:58 10:53:43 28° 263° (W) 10:57:26 435.000
LO-87 30 Apr 10:50:09 10:52:05 14° 94° (E) 10:53:59 145.935 - 145.965
NANOSAT C BR1 30 Apr 10:59:54 11:03:00 20° 70° (ENE) 11:06:08 145.865
PRISM 30 Apr 11:02:40 11:03:33 11° 268° (W) 11:04:26 437.425
UNISAT 6 30 Apr 11:14:04 11:16:24 14° 266° (W) 11:18:42 437.425
AIST 2D 30 Apr 11:26:01 11:29:29 79° 259° (WSW) 11:32:58 435.315
DUCHIFAT 1 30 Apr 11:26:32 11:30:23 37° 73° (ENE) 11:34:16 145.980
EO-79 30 Apr 11:29:17 11:33:22 51° 75° (ENE) 11:37:27 145.935-145.965
OBJECT BX 30 Apr 11:33:27 11:35:27 14° 291° (WNW) 11:37:28 145.990 - 145.960
FO-29 30 Apr 11:42:15 11:46:05 17° 265° (W) 11:49:43 435.910
VELOX 1 30 Apr 11:52:11 11:53:28 11° 92° (E) 11:54:46 145.980
ESTCUBE 1 30 Apr 11:54:32 11:59:00 53° 100° (E) 12:03:24 437.505/2401.250
BEESAT 3 30 Apr 12:05:58 12:09:34 36° 114° (ESE) 12:13:13 437.485
POLYITAN 1 30 Apr 12:09:53 12:13:56 47° 261° (W) 12:18:00 437.675
BUGSAT 1 30 Apr 12:11:30 12:15:20 38° 73° (ENE) 12:19:08 437.445
BEESAT 2 30 Apr 12:15:43 12:18:09 16° 109° (ESE) 12:20:36 435.950
QB50P2 30 Apr 12:16:57 12:20:49 35° 262° (W) 12:24:43 145.880/145.840
SPROUT 30 Apr 12:21:07 12:24:34 24° 96° (E) 12:28:01 437.525
LO-87 30 Apr 12:22:32 12:25:30 25° 288° (WNW) 12:28:27 145.935 - 145.965
AO-85 30 Apr 12:28:26 12:31:46 22° 306° (NW) 12:34:58 145.980
50 SAT 30 Apr 12:29:47 12:31:46 14° 95° (E) 12:33:44 437.505
PCSat 30 Apr 12:30:24 12:33:39 16° 256° (WSW) 12:36:53 145.827
DX 1 30 Apr 12:30:45 12:31:35 10° 92° (E) 12:32:24 434.975-435.025
NANOSAT C BR1 30 Apr 12:34:59 12:38:32 26° 263° (W) 12:42:04 145.865
Oscar 19 30 Apr 12:36:24 12:40:39 27° 68° (ENE) 12:44:56 437.125/150
RS-15 30 Apr 12:54:52 13:01:46 16° 19° (NNE) 13:08:33 29.354- 29.394
DUCHIFAT 1 30 Apr 13:03:59 13:06:10 14° 266° (W) 13:08:21 145.980
Tancredo 1 30 Apr 13:04:18 13:06:51 23° 35° (NE) 13:09:23 437.200
EO-79 30 Apr 13:08:57 13:09:22 10° 268° (W) 13:09:48 145.935-145.965
Gurwin Techsat 1B 30 Apr 13:11:08 13:15:52 34° 70° (ENE) 13:20:37 435.225
UKube-1 30 Apr 13:22:24 13:26:14 31° 98° (E) 13:30:03 .
VELOX 1 30 Apr 13:25:53 13:30:11 52° 286° (WNW) 13:34:26 145.980
ESTCUBE 1 30 Apr 13:33:19 13:35:17 13° 294° (WNW) 13:37:13 437.505/2401.250
SO-50 30 Apr 13:42:27 13:45:50 20° 51° (NE) 13:49:12 436.795
BEESAT 3 30 Apr 13:44:44 13:47:16 16° 309° (NW) 13:49:51 437.485
BUGSAT 1 30 Apr 13:48:45 13:50:47 13° 266° (W) 13:52:49 437.445
BEESAT 2 30 Apr 13:51:59 13:55:35 33° 304° (NW) 13:59:15 435.950
SPROUT 30 Apr 13:57:01 14:00:20 23° 290° (WNW) 14:03:39 437.525
ISS 30 Apr 13:58:07 14:01:21 65° 42° (NE) 14:04:34 437.550
50 SAT 30 Apr 14:01:50 14:04:39 23° 288° (WNW) 14:07:27 437.505
DX 1 30 Apr 14:03:47 14:08:02 53° 286° (WNW) 14:12:14 434.975-435.025
ITAMSAT 1 30 Apr 14:12:20 14:15:53 19° 66° (ENE) 14:19:24 435.822/435.867
Oscar 19 30 Apr 14:15:17 14:19:48 31° 263° (W) 14:24:22 437.125/150
JUGNU 30 Apr 14:30:43 14:32:28 11° 165° (SSE) 14:34:12 437.505
Tancredo 1 30 Apr 14:40:06 14:42:41 24° 230° (SW) 14:45:16 437.200
YUBILEINY 30 Apr 14:45:52 14:54:14 47° 78° (ENE) 15:02:35 435.215
AO-7 30 Apr 14:46:01 14:53:53 51° 66° (ENE) 15:01:47 .
Gurwin Techsat 1B 30 Apr 14:51:29 14:55:47 25° 264° (W) 15:00:07 435.225
UKube-1 30 Apr 14:59:00 15:02:00 19° 292° (WNW) 15:05:00 .
ITUPSAT 1 30 Apr 14:59:35 15:03:42 28° 97° (E) 15:07:46 437.325
RS-15 30 Apr 15:07:05 15:18:43 46° 50° (NE) 15:29:45 29.354- 29.394
MOZHAYETS 4 30 Apr 15:09:38 15:12:41 17° 94° (E) 15:15:42
SO-50 30 Apr 15:22:13 15:26:22 37° 246° (WSW) 15:30:31 436.795
